QPF
0.00 0.00 0.00 0.00 0.00 0.00 0.00 0.00 0.00 0.00 0.00 0.00 0.00 0.01 0.01 0.01 0.02 0.04 0.03 0.04 0.05 0.05 0.09 0.18 0.19 0.20 0.23 0.27 0.26 0.30 0.26 0.23 0.21 0.20 0.19 0.20 0.18 0.13 0.12 0.12 0.10 0.06 0.05 0.05
0.00 0.00 0.00 0.00 0.00 0.00 0.00 0.00 0.00 0.00 0.00 0.00 0.00 0.00 0.01 0.02 0.03 0.03 0.03 0.03 0.03 0.04 0.09 0.16 0.20 0.23 0.20 0.21 0.21 0.29 0.28 0.22 0.20 0.17 0.15 0.16 0.18 0.15 0.12 0.10 0.07 0.06 0.04 0.04
0.00 0.00 0.00 0.00 0.00 0.00 0.00 0.00 0.00 0.00 0.00 0.00 0.00 0.00 0.01 0.01 0.02 0.03 0.03 0.02 0.02 0.03 0.06 0.08 0.14 0.22 0.21 0.17 0.19 0.24 0.26 0.25 0.23 0.20 0.17 0.15 0.16 0.12 0.10 0.08 0.07 0.05 0.03 0.03
0.00 0.00 0.00 0.00 0.00 0.00 0.00 0.00 0.00 0.00 0.00 0.00 0.00 0.00 0.00 0.00 0.01 0.02 0.03 0.02 0.02 0.02 0.03 0.04 0.07 0.17 0.19 0.14 0.17 0.21 0.21 0.24 0.23 0.21 0.16 0.10 0.08 0.06 0.05 0.04 0.05 0.05 0.03 0.02
0.00 0.00 0.00 0.00 0.00 0.00 0.00 0.00 0.00 0.00 0.00 0.00 0.00 0.00 0.00 0.00 0.01 0.01 0.02 0.02 0.02 0.02 0.03 0.04 0.05 0.08 0.09 0.08 0.10 0.14 0.15 0.18 0.17 0.15 0.11 0.07 0.06 0.06 0.05 0.03 0.03 0.03 0.03 0.02
0.00 0.00 0.00 0.00 0.00 0.00 0.00 0.00 0.00 0.00 0.01 0.00 0.00 0.00 0.00 0.00 0.00 0.01 0.00 0.01 0.01 0.02 0.03 0.04 0.06 0.05 0.05 0.05 0.06 0.08 0.10 0.11 0.13 0.11 0.09 0.06 0.04 0.05 0.04 0.03 0.02 0.02 0.02 0.01
0.00 0.00 0.00 0.00 0.00 0.00 0.00 0.00 0.00 0.00 0.00 0.00 0.00 0.00 0.00 0.00 0.00 0.00 0.00 0.01 0.01 0.02 0.02 0.03 0.03 0.03 0.03 0.03 0.04 0.05 0.07 0.08 0.10 0.10 0.08 0.07 0.06 0.04 0.03 0.03 0.03 0.02 0.02 0.01
0.00 0.00 0.00 0.00 0.00 0.00 0.00 0.00 0.00 0.00 0.00 0.00 0.00 0.00 0.00 0.00 0.00 0.00 0.00 0.00 0.01 0.01 0.03 0.03 0.02 0.02 0.02 0.02 0.02 0.03 0.05 0.06 0.06 0.07 0.06 0.06 0.06 0.07 0.05 0.03 0.03 0.02 0.01 0.01
0.00 0.00 0.00 0.00 0.00 0.00 0.00 0.00 0.00 0.00 0.00 0.00 0.00 0.00 0.00 0.00 0.00 0.00 0.01 0.00 0.01 0.01 0.02 0.02 0.02 0.02 0.02 0.02 0.02 0.02 0.04 0.04 0.04 0.05 0.04 0.05 0.04 0.05 0.04 0.02 0.02 0.01 0.01 0.01
0.00 0.00 0.00 0.00 0.00 0.00 0.01 0.01 0.00 0.01 0.01 0.00 0.00 0.00 0.00 0.00 0.00 0.00 0.01 0.01 0.01 0.01 0.01 0.02 0.02 0.02 0.02 0.02 0.03 0.04 0.05 0.04 0.03 0.04 0.03 0.02 0.03 0.03 0.03 0.02 0.01 0.01 0.00 0.00
0.00 0.00 0.00 0.00 0.00 0.01 0.01 0.01 0.00 0.01 0.01 0.01 0.00 0.00 0.00 0.00 0.00 0.00 0.00 0.01 0.01 0.01 0.01 0.01 0.02 0.02 0.02 0.02 0.03 0.04 0.05 0.05 0.03 0.02 0.02 0.01 0.02 0.02 0.02 0.01 0.01 0.01 0.00 0.00
0.00 0.00 0.00 0.00 0.00 0.00 0.00 0.00 0.01 0.01 0.01 0.01 0.00 0.00 0.00 0.00 0.00 0.00 0.00 0.01 0.01 0.02 0.01 0.01 0.01 0.02 0.02 0.03 0.04 0.03 0.03 0.03 0.03 0.02 0.02 0.02 0.01 0.01 0.01 0.01 0.01 0.01 0.01 0.01
0.00 0.00 0.00 0.00 0.00 0.00 0.01 0.01 0.01 0.01 0.01 0.01 0.01 0.00 0.01 0.00 0.00 0.00 0.00 0.01 0.02 0.04 0.03 0.02 0.01 0.02 0.02 0.03 0.04 0.04 0.03 0.03 0.02 0.02 0.02 0.01 0.01 0.01 0.00 0.01 0.02 0.02 0.01 0.01
0.00 0.00 0.00 0.00 0.00 0.00 0.01 0.01 0.01 0.01 0.01 0.00 0.00 0.01 0.01 0.00 0.00 0.00 0.00 0.01 0.02 0.03 0.03 0.02 0.02 0.02 0.03 0.02 0.02 0.03 0.03 0.03 0.02 0.02 0.01 0.01 0.00 0.00 0.01 0.01 0.02 0.02 0.01 0.01
0.00 0.00 0.00 0.01 0.01 0.00 0.00 0.01 0.01 0.01 0.01 0.01 0.00 0.01 0.00 0.00 0.00 0.01 0.01 0.00 0.01 0.01 0.01 0.02 0.02 0.02 0.03 0.02 0.02 0.02 0.02 0.02 0.02 0.01 0.01 0.01 0.01 0.01 0.01 0.01 0.02 0.02 0.01 0.00
0.00 0.00 0.01 0.01 0.01 0.01 0.00 0.00 0.00 0.01 0.01 0.00 0.00 0.00 0.01 0.00 0.00 0.01 0.01 0.00 0.00 0.00 0.01 0.01 0.01 0.01 0.02 0.02 0.01 0.01 0.01 0.01 0.01 0.01 0.00 0.00 0.01 0.01 0.01 0.02 0.02 0.02 0.01 0.00
0.00 0.00 0.00 0.00 0.01 0.01 0.02 0.02 0.01 0.01 0.01 0.00 0.00 0.00 0.00 0.00 0.01 0.01 0.01 0.01 0.01 0.01 0.01 0.01 0.01 0.01 0.02 0.02 0.01 0.01 0.01 0.01 0.01 0.00 0.00 0.01 0.01 0.01 0.01 0.02 0.03 0.02 0.01 0.01
0.00 0.00 0.01 0.00 0.01 0.02 0.02 0.03 0.02 0.02 0.01 0.01 0.01 0.01 0.00 0.01 0.01 0.01 0.01 0.01 0.02 0.02 0.02 0.02 0.02 0.02 0.03 0.03 0.03 0.02 0.02 0.01 0.01 0.01 0.01 0.01 0.01 0.01 0.01 0.01 0.01 0.02 0.02 0.01
0.00 0.00 0.01 0.01 0.01 0.02 0.04 0.03 0.04 0.05 0.04 0.02 0.01 0.01 0.01 0.01 0.01 0.01 0.01 0.01 0.01 0.02 0.03 0.03 0.03 0.04 0.04 0.04 0.05 0.04 0.03 0.03 0.03 0.02 0.01 0.01 0.02 0.02 0.02 0.02 0.02 0.03 0.03 0.02
0.02 0.02 0.02 0.01 0.02 0.02 0.04 0.04 0.03 0.04 0.04 0.02 0.01 0.02 0.02 0.02 0.02 0.02 0.02 0.02 0.01 0.02 0.03 0.03 0.03 0.04 0.06 0.06 0.06 0.05 0.05 0.04 0.03 0.02 0.02 0.03 0.03 0.03 0.04 0.06 0.07 0.07 0.05 0.04
0.04 0.04 0.03 0.02 0.02 0.02 0.03 0.03 0.04 0.06 0.04 0.02 0.02 0.03 0.04 0.04 0.06 0.07 0.05 0.04 0.04 0.03 0.03 0.05 0.07 0.07 0.07 0.08 0.07 0.05 0.05 0.04 0.05 0.05 0.06 0.07 0.07 0.08 0.10 0.11 0.12 0.11 0.12 0.11
0.03 0.04 0.04 0.03 0.03 0.04 0.03 0.04 0.04 0.04 0.03 0.03 0.03 0.03 0.03 0.04 0.09 0.09 0.07 0.06 0.06 0.07 0.08 0.07 0.09 0.08 0.09 0.09 0.08 0.07 0.07 0.08 0.10 0.10 0.12 0.13 0.14 0.15 0.14 0.15 0.19 0.22 0.21 0.17
0.04 0.04 0.05 0.04 0.03 0.03 0.03 0.05 0.05 0.04 0.04 0.03 0.03 0.03 0.03 0.04 0.07 0.07 0.08 0.08 0.06 0.06 0.10 0.09 0.10 0.09 0.09 0.10 0.10 0.11 0.11 0.13 0.13 0.13 0.15 0.17 0.17 0.19 0.19 0.19 0.19 0.17 0.16 0.13
0.05 0.05 0.05 0.06 0.06 0.06 0.06 0.07 0.07 0.05 0.05 0.06 0.05 0.06 0.07 0.06 0.05 0.05 0.07 0.07 0.07 0.07 0.07 0.06 0.08 0.09 0.10 0.12 0.14 0.14 0.13 0.14 0.15 0.15 0.14 0.15 0.17 0.16 0.15 0.14 0.12 0.11 0.11 0.12
0.08 0.10 0.10 0.11 0.12 0.09 0.08 0.09 0.12 0.10 0.08 0.10 0.11 0.11 0.13 0.11 0.09 0.09 0.08 0.09 0.09 0.10 0.10 0.08 0.08 0.09 0.11 0.12 0.14 0.14 0.14 0.14 0.14 0.15 0.16 0.18 0.19 0.18 0.16 0.15 0.14 0.14 0.14 0.15
0.09 0.10 0.10 0.13 0.13 0.11 0.12 0.14 0.16 0.15 0.08 0.07 0.11 0.12 0.10 0.09 0.09 0.11 0.11 0.10 0.09 0.09 0.09 0.10 0.11 0.11 0.11 0.12 0.12 0.11 0.10 0.11 0.11 0.12 0.13 0.16 0.19 0.19 0.19 0.17 0.17 0.16 0.15 0.15
MSLP
1009.57 1010.31 1010.85 1011.19 1011.35 1011.39 1011.35 1011.25 1011.09 1010.88 1010.60 1010.22 1009.75 1009.23 1008.69 1008.21 1007.84 1007.64 1007.61 1007.74 1007.97 1008.24 1008.46 1008.58 1008.58 1008.45 1008.26 1008.09 1008.01 1008.11 1008.46 1009.03 1009.82 1010.74 1011.71 1012.64 1013.46 1014.11 1014.61 1014.96 1015.24 1015.49 1015.77 1016.12
1009.90 1010.49 1010.87 1011.08 1011.18 1011.23 1011.27 1011.32 1011.35 1011.32 1011.20 1010.92 1010.50 1009.96 1009.35 1008.75 1008.27 1007.96 1007.84 1007.91 1008.11 1008.34 1008.53 1008.58 1008.47 1008.21 1007.85 1007.51 1007.27 1007.26 1007.54 1008.13 1008.98 1010.01 1011.13 1012.21 1013.16 1013.93 1014.49 1014.89 1015.17 1015.42 1015.70 1016.05
1009.99 1010.40 1010.62 1010.71 1010.76 1010.85 1011.00 1011.22 1011.46 1011.64 1011.69 1011.55 1011.18 1010.62 1009.94 1009.24 1008.63 1008.19 1007.98 1007.97 1008.12 1008.32 1008.47 1008.47 1008.29 1007.92 1007.45 1006.98 1006.63 1006.53 1006.76 1007.35 1008.26 1009.39 1010.63 1011.84 1012.92 1013.79 1014.43 1014.88 1015.18 1015.43 1015.71 1016.06
1009.84 1010.07 1010.14 1010.13 1010.16 1010.30 1010.59 1011.00 1011.47 1011.87 1012.11 1012.09 1011.78 1011.21 1010.46 1009.64 1008.89 1008.32 1007.99 1007.90 1007.99 1008.16 1008.29 1008.27 1008.06 1007.66 1007.13 1006.59 1006.18 1006.03 1006.23 1006.83 1007.77 1008.96 1010.29 1011.60 1012.77 1013.72 1014.42 1014.90 1015.23 1015.49 1015.75 1016.10
1009.49 1009.56 1009.50 1009.44 1009.48 1009.70 1010.15 1010.76 1011.45 1012.06 1012.47 1012.57 1012.31 1011.72 1010.89 1009.95 1009.05 1008.34 1007.89 1007.70 1007.74 1007.89 1008.02 1008.04 1007.86 1007.48 1006.97 1006.43 1006.01 1005.84 1006.03 1006.62 1007.57 1008.79 1010.14 1011.49 1012.71 1013.70 1014.43 1014.94 1015.27 1015.53 1015.79 1016.12
1009.02 1008.96 1008.82 1008.74 1008.82 1009.16 1009.77 1010.58 1011.47 1012.27 1012.82 1013.01 1012.78 1012.16 1011.23 1010.17 1009.13 1008.28 1007.70 1007.43 1007.41 1007.56 1007.74 1007.81 1007.72 1007.43 1006.99 1006.52 1006.14 1005.99 1006.18 1006.75 1007.67 1008.86 1010.19 1011.52 1012.72 1013.71 1014.44 1014.94 1015.27 1015.52 1015.77 1016.09
1008.50 1008.36 1008.19 1008.13 1008.30 1008.77 1009.53 1010.51 1011.56 1012.50 1013.15 1013.39 1013.16 1012.49 1011.48 1010.30 1009.14 1008.16 1007.48 1007.13 1007.09 1007.25 1007.48 1007.66 1007.68 1007.52 1007.22 1006.85 1006.56 1006.45 1006.64 1007.18 1008.04 1009.16 1010.41 1011.66 1012.80 1013.73 1014.42 1014.89 1015.20 1015.44 1015.68 1015.98
1008.00 1007.84 1007.69 1007.69 1007.96 1008.55 1009.44 1010.54 1011.70 1012.71 1013.41 1013.66 1013.41 1012.69 1011.61 1010.34 1009.08 1008.01 1007.26 1006.87 1006.81 1007.00 1007.31 1007.59 1007.76 1007.76 1007.61 1007.38 1007.18 1007.12 1007.32 1007.82 1008.60 1009.60 1010.73 1011.86 1012.89 1013.74 1014.36 1014.79 1015.08 1015.30 1015.52 1015.82
1007.56 1007.43 1007.35 1007.45 1007.82 1008.51 1009.48 1010.64 1011.83 1012.85 1013.53 1013.75 1013.47 1012.70 1011.57 1010.26 1008.96 1007.86 1007.07 1006.67 1006.63 1006.86 1007.24 1007.64 1007.94 1008.09 1008.09 1008.00 1007.90 1007.91 1008.11 1008.56 1009.24 1010.12 1011.11 1012.10 1013.00 1013.74 1014.29 1014.67 1014.93 1015.13 1015.35 1015.64
1007.20 1007.15 1007.17 1007.38 1007.84 1008.59 1009.58 1010.73 1011.87 1012.82 1013.43 1013.59 1013.25 1012.46 1011.33 1010.03 1008.76 1007.68 1006.93 1006.55 1006.54 1006.82 1007.27 1007.76 1008.18 1008.46 1008.60 1008.63 1008.63 1008.69 1008.90 1009.29 1009.89 1010.64 1011.48 1012.33 1013.10 1013.74 1014.22 1014.56 1014.80 1015.00 1015.21 1015.50
1006.93 1007.00 1007.15 1007.45 1007.98 1008.73 1009.68 1010.73 1011.73 1012.54 1013.03 1013.09 1012.71 1011.93 1010.85 1009.62 1008.45 1007.47 1006.80 1006.49 1006.54 1006.87 1007.37 1007.91 1008.41 1008.79 1009.03 1009.16 1009.24 1009.35 1009.57 1009.93 1010.44 1011.09 1011.81 1012.53 1013.19 1013.75 1014.17 1014.48 1014.72 1014.92 1015.14 1015.43
1006.77 1006.98 1007.24 1007.63 1008.18 1008.89 1009.72 1010.60 1011.40 1012.01 1012.33 1012.29 1011.86 1011.11 1010.12 1009.04 1008.02 1007.19 1006.65 1006.45 1006.56 1006.93 1007.45 1008.03 1008.56 1008.99 1009.30 1009.51 1009.66 1009.82 1010.06 1010.40 1010.87 1011.43 1012.06 1012.69 1013.27 1013.76 1014.15 1014.45 1014.69 1014.90 1015.14 1015.44
1006.73 1007.08 1007.46 1007.90 1008.43 1009.04 1009.69 1010.34 1010.89 1011.27 1011.39 1011.23 1010.77 1010.07 1009.21 1008.31 1007.48 1006.84 1006.46 1006.37 1006.54 1006.93 1007.45 1008.02 1008.55 1009.00 1009.35 1009.62 1009.83 1010.05 1010.32 1010.68 1011.12 1011.65 1012.21 1012.78 1013.31 1013.76 1014.13 1014.43 1014.68 1014.92 1015.17 1015.47
1006.85 1007.32 1007.78 1008.25 1008.72 1009.18 1009.63 1010.01 1010.28 1010.40 1010.33 1010.04 1009.56 1008.92 1008.21 1007.49 1006.87 1006.43 1006.20 1006.20 1006.42 1006.81 1007.30 1007.83 1008.33 1008.77 1009.14 1009.45 1009.73 1010.02 1010.35 1010.74 1011.20 1011.72 1012.26 1012.79 1013.28 1013.71 1014.08 1014.38 1014.65 1014.90 1015.17 1015.46
1007.15 1007.71 1008.22 1008.67 1009.05 1009.35 1009.56 1009.68 1009.67 1009.54 1009.27 1008.87 1008.37 1007.80 1007.21 1006.68 1006.25 1005.96 1005.86 1005.93 1006.16 1006.51 1006.94 1007.40 1007.85 1008.27 1008.65 1009.01 1009.36 1009.73 1010.15 1010.61 1011.11 1011.65 1012.18 1012.70 1013.17 1013.58 1013.93 1014.24 1014.51 1014.77 1015.03 1015.32
1007.61 1008.23 1008.75 1009.16 1009.43 1009.56 1009.56 1009.42 1009.16 1008.81 1008.37 1007.87 1007.35 1006.83 1006.36 1005.96 1005.67 1005.50 1005.46 1005.55 1005.74 1006.02 1006.36 1006.73 1007.11 1007.50 1007.89 1008.31 1008.75 1009.22 1009.74 1010.29 1010.86 1011.44 1011.98 1012.49 1012.94 1013.32 1013.65 1013.94 1014.20 1014.46 1014.72 1014.99
1008.21 1008.84 1009.34 1009.68 1009.84 1009.81 1009.62 1009.27 1008.81 1008.28 1007.71 1007.14 1006.60 1006.12 1005.72 1005.41 1005.20 1005.08 1005.05 1005.09 1005.20 1005.37 1005.59 1005.85 1006.16 1006.52 1006.93 1007.41 1007.95 1008.54 1009.18 1009.83 1010.48 1011.10 1011.66 1012.16 1012.58 1012.93 1013.23 1013.48 1013.72 1013.95 1014.19 1014.44
1008.87 1009.45 1009.89 1010.15 1010.20 1010.05 1009.71 1009.22 1008.62 1007.98 1007.32 1006.71 1006.17 1005.71 1005.35 1005.07 1004.87 1004.74 1004.65 1004.60 1004.58 1004.61 1004.69 1004.84 1005.07 1005.41 1005.85 1006.40 1007.04 1007.75 1008.51 1009.27 1010.00 1010.67 1011.24 1011.73 1012.11 1012.42 1012.66 1012.87 1013.07 1013.27 1013.48 1013.70
1009.47 1009.97 1010.32 1010.48 1010.43 1010.18 1009.75 1009.18 1008.51 1007.81 1007.14 1006.52 1005.99 1005.55 1005.19 1004.92 1004.69 1004.48 1004.30 1004.12 1003.95 1003.83 1003.77 1003.81 1003.98 1004.29 1004.76 1005.38 1006.12 1006.95 1007.82 1008.68 1009.48 1010.18 1010.77 1011.23 1011.58 1011.83 1012.02 1012.18 1012.33 1012.49 1012.67 1012.87
1009.90 1010.27 1010.50 1010.56 1010.42 1010.10 1009.62 1009.02 1008.35 1007.66 1007.01 1006.42 1005.92 1005.51 1005.16 1004.86 1004.58 1004.30 1004.00 1003.69 1003.39 1003.12 1002.94 1002.89 1003.00 1003.30 1003.79 1004.47 1005.30 1006.22 1007.18 1008.11 1008.96 1009.70 1010.28 1010.73 1011.03 1011.24 1011.38 1011.49 1011.60 1011.73 1011.89 1012.07
1010.07 1010.28 1010.37 1010.31 1010.09 1009.72 1009.23 1008.64 1008.00 1007.37 1006.78 1006.26 1005.82 1005.44 1005.11 1004.80 1004.49 1004.14 1003.76 1003.35 1002.94 1002.58 1002.31 1002.19 1002.26 1002.56 1003.07 1003.79 1004.66 1005.65 1006.66 1007.64 1008.52 1009.27 1009.85 1010.27 1010.55 1010.72 1010.82 1010.90 1010.98 1011.09 1011.24 1011.42
1009.94 1009.97 1009.90 1009.71 1009.41 1008.99 1008.49 1007.94 1007.37 1006.82 1006.31 1005.88 1005.51 1005.20 1004.92 1004.63 1004.32 1003.96 1003.54 1003.10 1002.65 1002.25 1001.94 1001.80 1001.87 1002.16 1002.68 1003.41 1004.31 1005.30 1006.33 1007.32 1008.20 1008.94 1009.51 1009.92 1010.19 1010.34 1010.43 1010.49 1010.56 1010.67 1010.82 1011.00
1009.53 1009.37 1009.13 1008.81 1008.41 1007.95 1007.44 1006.92 1006.41 1005.94 1005.53 1005.19 1004.92 1004.70 1004.49 1004.27 1004.02 1003.71 1003.35 1002.94 1002.53 1002.17 1001.90 1001.78 1001.86 1002.16 1002.68 1003.39 1004.27 1005.24 1006.24 1007.19 1008.05 1008.77 1009.32 1009.72 1009.98 1010.14 1010.24 1010.31 1010.39 1010.51 1010.67 1010.86
1008.89 1008.55 1008.15 1007.70 1007.21 1006.69 1006.16 1005.65 1005.19 1004.79 1004.46 1004.22 1004.04 1003.92 1003.82 1003.72 1003.58 1003.40 1003.17 1002.89 1002.61 1002.35 1002.18 1002.14 1002.26 1002.57 1003.07 1003.75 1004.57 1005.47 1006.39 1007.28 1008.08 1008.76 1009.30 1009.69 1009.97 1010.15 1010.27 1010.37 1010.49 1010.62 1010.79 1011.00
1008.14 1007.65 1007.11 1006.54 1005.96 1005.38 1004.82 1004.31 1003.86 1003.51 1003.24 1003.07 1002.98 1002.96 1002.99 1003.04 1003.07 1003.07 1003.03 1002.96 1002.87 1002.79 1002.77 1002.84 1003.03 1003.36 1003.84 1004.45 1005.18 1005.97 1006.79 1007.58 1008.30 1008.93 1009.44 1009.84 1010.14 1010.36 1010.53 1010.67 1010.82 1010.98 1011.16 1011.36
1007.39 1006.79 1006.16 1005.51 1004.85 1004.22 1003.63 1003.10 1002.65 1002.30 1002.07 1001.94 1001.93 1002.01 1002.16 1002.37 1002.59 1002.81 1003.01 1003.18 1003.33 1003.47 1003.63 1003.83 1004.10 1004.45 1004.90 1005.44 1006.05 1006.72 1007.40 1008.08 1008.71 1009.28 1009.76 1010.17 1010.50 1010.76 1010.97 1011.17 1011.35 1011.52 1011.71 1011.90
Thickness
5761 5747 5739 5744 5748 5751 5749 5745 5741 5754 5771 5765 5759 5760 5765 5770 5769 5765 5762 5760 5757 5756 5755 5752 5748 5744 5741 5738 5735 5733 5731 5730 5729 5727 5725 5723 5722 5723 5723 5724 5726 5726 5725 5723
5744 5739 5753 5757 5755 5751 5746 5740 5742 5755 5768 5764 5756 5757 5765 5767 5766 5766 5762 5759 5757 5753 5748 5747 5744 5741 5739 5736 5733 5731 5730 5730 5730 5728 5726 5724 5722 5721 5722 5723 5723 5724 5723 5722
5737 5748 5761 5755 5750 5745 5744 5740 5743 5746 5756 5758 5752 5748 5755 5762 5764 5763 5763 5759 5756 5753 5748 5745 5741 5737 5735 5734 5733 5732 5730 5728 5728 5727 5724 5722 5719 5718 5718 5719 5720 5721 5721 5721
5740 5752 5755 5751 5748 5747 5736 5754 5753 5750 5739 5729 5739 5720 5743 5751 5753 5756 5757 5755 5753 5752 5748 5744 5741 5737 5735 5734 5732 5731 5729 5727 5726 5725 5723 5721 5718 5716 5717 5718 5718 5719 5719 5720
5738 5750 5749 5746 5752 5754 5749 5759 5752 5746 5735 5726 5729 5718 5731 5746 5745 5752 5756 5756 5755 5753 5749 5745 5742 5739 5737 5735 5732 5730 5728 5725 5725 5724 5723 5721 5719 5718 5716 5716 5716 5716 5717 5718
5745 5757 5758 5757 5764 5763 5759 5749 5738 5726 5719 5710 5724 5715 5722 5737 5748 5755 5759 5759 5757 5753 5749 5745 5742 5739 5736 5734 5732 5729 5726 5724 5724 5723 5722 5720 5718 5717 5715 5714 5713 5713 5714 5715
5734 5746 5757 5763 5753 5754 5748 5725 5703 5702 5693 5700 5720 5716 5725 5754 5760 5762 5762 5761 5759 5755 5750 5744 5740 5737 5735 5733 5731 5728 5725 5723 5723 5722 5721 5720 5719 5718 5716 5715 5713 5712 5712 5713
5714 5718 5745 5754 5750 5741 5738 5727 5701 5692 5689 5699 5714 5712 5737 5761 5766 5767 5766 5764 5760 5755 5752 5747 5744 5740 5737 5734 5732 5729 5726 5724 5723 5723 5721 5720 5719 5718 5717 5716 5715 5714 5714 5714
5711 5717 5747 5756 5758 5750 5733 5723 5727 5704 5700 5695 5704 5720 5743 5761 5761 5762 5762 5761 5759 5757 5753 5750 5747 5743 5740 5737 5734 5731 5728 5725 5724 5723 5721 5720 5719 5718 5716 5716 5715 5714 5714 5714
5725 5717 5735 5747 5752 5748 5742 5728 5709 5698 5688 5687 5703 5713 5725 5749 5752 5756 5757 5757 5759 5758 5755 5752 5749 5746 5743 5740 5736 5733 5730 5727 5725 5724 5722 5721 5720 5719 5717 5716 5715 5714 5714 5715
5728 5714 5720 5730 5729 5728 5728 5720 5708 5695 5695 5686 5687 5708 5746 5750 5755 5754 5756 5759 5759 5758 5757 5754 5751 5748 5745 5740 5737 5733 5730 5727 5725 5724 5723 5722 5720 5719 5718 5717 5716 5715 5714 5714
5719 5705 5699 5714 5730 5736 5731 5721 5707 5697 5694 5690 5689 5710 5758 5757 5758 5758 5758 5759 5759 5759 5758 5756 5753 5748 5745 5741 5737 5734 5731 5729 5727 5726 5723 5722 5720 5719 5718 5717 5716 5715 5714 5714
5715 5698 5686 5693 5706 5717 5718 5718 5711 5700 5691 5684 5686 5713 5754 5754 5755 5757 5757 5758 5758 5757 5756 5754 5751 5749 5746 5743 5739 5736 5733 5731 5729 5727 5724 5722 5720 5719 5718 5718 5717 5716 5714 5713
5715 5694 5687 5684 5692 5703 5706 5711 5708 5699 5686 5685 5696 5716 5739 5745 5748 5752 5754 5756 5756 5756 5755 5753 5751 5750 5748 5746 5743 5739 5736 5734 5731 5728 5725 5723 5721 5720 5719 5718 5716 5715 5714 5712
5706 5690 5693 5695 5702 5703 5704 5706 5706 5700 5698 5695 5707 5715 5732 5740 5745 5751 5754 5755 5754 5753 5753 5753 5752 5751 5749 5747 5745 5742 5739 5736 5733 5729 5726 5725 5723 5721 5719 5718 5716 5715 5713 5712
5692 5686 5687 5687 5697 5698 5697 5703 5704 5703 5705 5704 5709 5716 5735 5741 5745 5748 5751 5753 5754 5755 5756 5755 5754 5753 5751 5750 5748 5744 5741 5738 5734 5731 5728 5726 5723 5721 5719 5717 5715 5713 5711 5710
5677 5675 5670 5668 5683 5685 5680 5696 5699 5701 5706 5706 5705 5718 5729 5732 5737 5742 5747 5752 5754 5757 5758 5758 5757 5757 5756 5754 5751 5747 5744 5740 5735 5732 5729 5727 5724 5721 5719 5717 5713 5711 5710 5708
5668 5663 5656 5656 5665 5659 5683 5701 5702 5699 5702 5708 5711 5716 5721 5725 5733 5740 5745 5748 5752 5756 5758 5759 5759 5759 5759 5756 5753 5749 5744 5740 5736 5733 5730 5727 5724 5721 5718 5715 5712 5710 5708 5705
5666 5658 5649 5646 5649 5662 5681 5692 5692 5689 5692 5703 5704 5709 5716 5723 5729 5735 5743 5747 5749 5753 5757 5760 5762 5762 5760 5757 5753 5748 5743 5739 5736 5733 5731 5728 5725 5721 5717 5714 5712 5709 5706 5704
5656 5654 5646 5642 5646 5649 5672 5687 5693 5689 5682 5698 5700 5702 5708 5713 5710 5722 5735 5740 5745 5750 5754 5757 5761 5761 5758 5757 5753 5747 5742 5739 5737 5736 5733 5729 5725 5721 5718 5715 5711 5709 5705 5702
5645 5643 5642 5641 5643 5654 5673 5682 5686 5669 5678 5692 5695 5698 5701 5703 5708 5719 5727 5733 5739 5745 5750 5754 5756 5756 5755 5754 5751 5746 5743 5740 5740 5736 5732 5728 5725 5721 5718 5713 5709 5706 5702 5698
5639 5637 5637 5636 5638 5647 5671 5674 5670 5672 5682 5686 5690 5694 5696 5702 5708 5714 5720 5726 5732 5737 5742 5747 5749 5750 5750 5750 5747 5743 5741 5741 5737 5732 5728 5725 5722 5719 5715 5710 5705 5702 5698 5693
5638 5640 5639 5640 5645 5657 5664 5667 5671 5674 5676 5681 5685 5690 5694 5697 5702 5707 5713 5718 5723 5729 5733 5737 5740 5740 5741 5742 5742 5738 5736 5734 5731 5727 5723 5720 5717 5714 5711 5707 5702 5697 5693 5689
5638 5640 5639 5641 5649 5656 5660 5663 5667 5672 5674 5678 5682 5685 5689 5692 5696 5700 5704 5709 5714 5719 5723 5725 5727 5728 5728 5730 5732 5731 5729 5728 5724 5720 5716 5713 5710 5706 5704 5701 5697 5692 5688 5683
5633 5635 5635 5638 5646 5652 5657 5659 5663 5667 5671 5673 5676 5679 5681 5684 5687 5690 5693 5697 5701 5705 5708 5711 5712 5714 5715 5717 5718 5719 5719 5719 5715 5711 5709 5706 5703 5699 5695 5692 5689 5686 5683 5680
5629 5631 5631 5635 5641 5642 5645 5651 5656 5659 5661 5664 5667 5669 5672 5674 5676 5679 5681 5684 5687 5691 5693 5696 5698 5701 5702 5704 5705 5706 5707 5708 5705 5701 5699 5696 5693 5689 5685 5682 5677 5674 5672 5670